Stations météo

réclame
Mon MeteoGroup
Leuchars, Grande-Bretagne (3171): Température de l'air & dewpoint: 14.10.2018 14:00:00 - 20.10.2018 14:00:00 (BST)Leuchars, Grande-Bretagne (3171): Température de l'air -20cm & Température de l'air -100cm: 14.10.2018 14:00:00 - 20.10.2018 14:00:00 (BST)Leuchars, Grande-Bretagne (3171): Vitesse du vent & gusts: 14.10.2018 14:00:00 - 20.10.2018 14:00:00 (BST)Leuchars, Grande-Bretagne (3171): Direction du vent: 14.10.2018 14:00:00 - 20.10.2018 14:00:00 (BST)Leuchars, Grande-Bretagne (3171): reduced air pressure: 14.10.2018 14:00:00 - 20.10.2018 14:00:00 (BST)Leuchars, Grande-Bretagne (3171): visibility: 14.10.2018 14:00:00 - 20.10.2018 14:00:00 (BST)Leuchars, Grande-Bretagne (3171): Ensoleillement: 14.10.2018 14:00:00 - 20.10.2018 14:00:00 (BST)Leuchars, Grande-Bretagne (3171): Quantités de précipitations: 14.10.2018 14:00:00 - 20.10.2018 14:00:00 (BST)
Date & Time tt [°C] td [°C] tt -20cm [°C] tt -100cm [°C] ff [km/h] ff [knt] fx [km/h] fx [knt] dd ppp [hPa] vv [km] sd [min] rr [mm]
20.10.2018 14:00:00 15,6 12,0 - - 34 18 54 29 W 1023,6 10 18 0,0
20.10.2018 13:00:00 15,4 11,9 - - 34 18 46 25 W 1023,9 35 36 0,0
20.10.2018 12:00:00 14,1 12,3 - - 31 17 - - W 1023,9 10 0 0,0
20.10.2018 11:00:00 13,5 12,3 - - 24 13 - - WSW 1023,8 40 0 -
20.10.2018 10:00:00 13,2 11,9 9,7 11,0 26 14 - - WSW 1023,8 10 6 0,0
20.10.2018 09:00:00 12,1 11,3 - - 18 10 - - WSW 1023,2 10 0 0,0
20.10.2018 08:00:00 10,9 10,5 - - 15 8 - - WSW 1023,4 11 0 0,0
20.10.2018 07:00:00 9,7 9,1 - - 4 2 - - W 1023,8 12 0 0,0
20.10.2018 06:00:00 9,3 8,7 - - 9 5 - - W 1024,2 10 0 0,0
20.10.2018 05:00:00 8,7 7,8 - - 11 6 - - W 1024,0 12 0 0,0
20.10.2018 04:00:00 8,9 7,8 - - 9 5 - - WNW 1024,6 13 0 0,0
20.10.2018 03:00:00 6,6 5,5 - - 8 4 - - SSW 1024,7 10 0 0,0
20.10.2018 02:00:00 7,7 6,8 - - 11 6 - - WNW 1025,0 10 0 0,0
20.10.2018 01:00:00 6,8 5,3 - - 11 6 - - W 1025,0 13 - 0,0
20.10.2018 00:00:00 7,2 5,5 - - 13 7 - - WSW 1025,3 15 0 0,0
19.10.2018 23:00:00 7,9 5,9 - - 13 7 - - W 1025,1 16 0 0,0
19.10.2018 22:00:00 8,4 5,6 - - 11 6 - - W 1024,7 10 0 0,0
19.10.2018 21:00:00 8,8 5,6 - - 15 8 - - W 1024,5 17 0 0,0
19.10.2018 20:00:00 9,5 5,7 - - 8 4 - - WNW 1023,5 29 0 0,0
19.10.2018 19:00:00 9,5 6,5 - - 13 7 - - W 1022,6 30 0 0,0
19.10.2018 18:00:00 11,6 6,7 - - 18 10 - - W 1021,9 30 18 0,0
19.10.2018 17:00:00 12,5 9,8 - - 15 8 - - WSW 1020,9 10 18 0,0
19.10.2018 16:00:00 12,1 9,5 - - 24 13 - - WSW 1020,7 35 6 0,0
19.10.2018 15:00:00 11,8 9,4 - - 26 14 - - WSW 1020,4 30 0 0,0
19.10.2018 14:00:00 12,2 9,1 - - 29 16 - - WSW 1020,2 30 18 0,0
19.10.2018 13:00:00 11,6 8,2 - - 31 17 - - WSW 1020,3 10 0 0,0
19.10.2018 12:00:00 11,4 7,2 - - 24 13 - - W 1020,4 35 24 0,0
19.10.2018 11:00:00 10,2 6,2 - - 24 13 - - WSW 1020,3 28 36 0,0
19.10.2018 10:00:00 9,2 6,0 9,7 11,2 18 10 - - SW 1020,4 25 12 0,0
19.10.2018 09:00:00 8,6 5,7 - - 24 13 - - SW 1020,3 10 0 0,0
19.10.2018 08:00:00 7,8 5,1 - - 13 7 - - W 1020,4 10 0 0,0
19.10.2018 07:00:00 7,0 4,4 - - 13 7 - - SW 1020,6 10 0 0,0
19.10.2018 06:00:00 6,7 4,2 - - 13 7 - - WSW 1021,3 35 0 0,0
19.10.2018 05:00:00 7,0 4,8 - - 13 7 - - SW 1021,9 29 0 0,0
19.10.2018 04:00:00 6,9 4,6 - - 9 5 - - SSW 1022,6 35 0 0,0
19.10.2018 03:00:00 6,3 4,0 - - 4 2 - - WSW 1023,3 10 0 0,0
19.10.2018 02:00:00 6,4 4,0 - - 8 4 - - SW 1023,7 50 0 0,0
19.10.2018 01:00:00 6,5 4,1 - - 4 2 - - SSW 1024,5 10 - 0,0
19.10.2018 00:00:00 6,3 4,7 - - 8 4 - - WSW 1025,2 35 0 0,0
18.10.2018 23:00:00 6,2 4,1 - - 4 2 - - WSW 1025,5 45 0 0,0
18.10.2018 22:00:00 7,2 4,3 - - 8 4 - - W 1025,5 10 0 0,0
18.10.2018 21:00:00 8,4 5,1 - - 8 4 - - SW 1025,9 10 0 0,0
18.10.2018 20:00:00 8,7 5,8 - - 9 5 - - SW 1026,1 35 0 0,0
18.10.2018 19:00:00 9,7 5,9 - - 11 6 - - SW 1026,3 45 0 0,0
18.10.2018 18:00:00 8,9 5,4 - - 9 5 - - WSW 1026,6 10 0 0,0
18.10.2018 17:00:00 11,1 5,6 - - 8 4 - - WSW 1026,7 30 48 0,0
18.10.2018 16:00:00 12,2 5,7 - - 11 6 - - W 1026,9 10 6 0,0
18.10.2018 15:00:00 11,4 5,2 - - 11 6 - - W 1027,2 26 0 0,0
18.10.2018 14:00:00 11,9 4,8 - - 11 6 - - WSW 1027,6 30 48 0,0
18.10.2018 13:00:00 11,9 4,4 - - 8 4 - - W 1027,9 28 60 0,0
18.10.2018 12:00:00 9,9 6,5 - - 9 5 - - WSW 1028,5 22 36 0,0
18.10.2018 11:00:00 8,7 6,2 - - 9 5 - - WSW 1028,8 16 54 0,0
18.10.2018 10:00:00 7,1 5,1 10,0 11,2 8 4 - - WSW 1028,5 10 48 0,0
18.10.2018 09:00:00 4,5 3,3 - - 9 5 - - W 1028,5 30 12 0,0
18.10.2018 08:00:00 3,5 3,1 - - 9 5 - - W 1028,1 28 0 0,0
18.10.2018 07:00:00 4,4 2,7 - - 11 6 - - W 1027,9 24 0 0,0
18.10.2018 06:00:00 3,7 2,4 - - 11 6 - - W 1027,5 22 0 0,0
18.10.2018 05:00:00 4,0 3,1 - - 9 5 - - W 1027,1 25 0 0,0
18.10.2018 04:00:00 4,2 3,1 - - 11 6 - - W 1026,8 26 0 0,0
18.10.2018 03:00:00 2,7 1,9 - - 11 6 - - WSW 1026,6 35 0 0,0
18.10.2018 02:00:00 3,8 2,2 - - 15 8 - - W 1026,3 30 0 0,0
18.10.2018 01:00:00 5,3 3,8 - - 13 7 - - W 1026,1 10 - 0,0
18.10.2018 00:00:00 3,3 1,8 - - 9 5 - - WSW 1025,8 35 0 0,0
17.10.2018 23:00:00 3,7 2,2 - - 11 6 - - WSW 1025,5 45 0 0,0
17.10.2018 22:00:00 5,5 3,4 - - 8 4 - - WSW 1024,7 45 0 0,0
17.10.2018 21:00:00 7,7 4,2 - - 8 4 - - WNW 1023,9 10 0 0,0
17.10.2018 20:00:00 6,5 4,1 - - 4 2 - - W 1022,8 40 0 0,0
17.10.2018 19:00:00 10,0 4,2 - - 13 7 - - WNW 1021,8 10 0 0,0
17.10.2018 18:00:00 11,5 3,8 - - 15 8 - - WNW 1020,8 45 36 0,0
17.10.2018 17:00:00 12,9 5,1 - - 11 6 - - NW 1019,7 40 12 0,0
17.10.2018 16:00:00 13,5 4,5 - - 21 11 - - W 1019,0 30 30 0,0
17.10.2018 15:00:00 13,2 5,7 - - 22 12 - - W 1018,3 45 48 0,0
17.10.2018 14:00:00 12,4 7,9 - - 9 5 - - NW 1017,6 40 0 0,0
17.10.2018 13:00:00 12,2 8,2 - - 11 6 - - NW 1016,9 50 42 0,0
17.10.2018 12:00:00 12,5 9,0 - - 18 10 - - W 1016,2 35 42 0,0
17.10.2018 11:00:00 11,9 10,4 - - 13 7 - - W 1015,6 18 6 0,0
17.10.2018 10:00:00 9,0 8,5 10,2 11,4 8 4 - - W 1014,9 16 0 0,2
17.10.2018 09:00:00 7,9 7,3 - - 8 4 - - W 1014,1 18 0 0,0
17.10.2018 08:00:00 7,4 7,3 - - 5 3 - - WNW 1013,3 13 0 0,0
17.10.2018 07:00:00 7,6 7,2 - - 5 3 - - W 1012,4 10 0 0,0
17.10.2018 06:00:00 8,2 7,5 - - 11 6 - - W 1011,6 10 0 0,0
17.10.2018 05:00:00 8,4 7,8 - - 21 11 - - W 1010,6 10 0 0,0
17.10.2018 04:00:00 10,0 8,9 - - 21 11 - - WSW 1010,1 10 0 0,0
17.10.2018 03:00:00 9,6 8,5 - - 16 9 - - WSW 1009,6 14 0 0,0
17.10.2018 02:00:00 9,5 8,3 - - 16 9 - - WSW 1009,6 10 0 0,0
17.10.2018 01:00:00 10,4 9,0 - - 13 7 - - W 1009,3 10 - 0,0
17.10.2018 00:00:00 9,5 8,3 - - 9 5 - - W 1008,9 10 0 0,0
16.10.2018 23:00:00 9,7 8,8 - - 4 2 - - E 1008,7 30 0 0,0
16.10.2018 22:00:00 11,1 9,6 - - 18 10 - - SW 1008,6 10 0 0,0
16.10.2018 21:00:00 10,9 9,3 - - 15 8 - - SW 1008,6 40 0 0,0
16.10.2018 20:00:00 11,1 9,8 - - 13 7 - - SW 1008,4 45 0 0,0
16.10.2018 19:00:00 12,0 10,8 - - 18 10 - - SW 1007,8 50 0 0,0
16.10.2018 18:00:00 12,5 11,1 - - 18 10 - - WSW 1007,7 5 0 0,0
16.10.2018 17:00:00 13,6 10,7 - - 26 14 54 29 W 1007,4 45 0 0,0
16.10.2018 16:00:00 14,7 9,3 - - 29 16 52 28 WSW 1007,0 10 0 0,0
16.10.2018 15:00:00 15,2 8,8 - - 34 18 50 27 WSW 1006,9 40 24 0,0
16.10.2018 14:00:00 16,2 9,2 - - 31 17 52 28 WSW 1007,2 30 42 0,0
16.10.2018 13:00:00 13,4 9,9 - - 16 9 - - SSW 1007,7 40 6 0,0
16.10.2018 12:00:00 12,9 9,7 - - 16 9 - - SSW 1008,4 45 18 0,0
16.10.2018 11:00:00 11,8 8,7 - - 15 8 - - S 1009,2 40 36 0,0
16.10.2018 10:00:00 10,1 8,5 10,2 11,5 11 6 - - S 1009,9 50 0 0,0
16.10.2018 09:00:00 9,8 8,3 - - 13 7 - - S 1010,3 10 0 0,0
16.10.2018 08:00:00 9,4 7,9 - - 15 8 - - SSE 1010,7 40 0 0,0
16.10.2018 07:00:00 9,2 7,6 - - 13 7 - - S 1011,3 45 0 0,0
16.10.2018 06:00:00 8,6 7,4 - - 9 5 - - SSE 1011,8 45 0 0,0
16.10.2018 05:00:00 7,8 6,3 - - 5 3 - - SE 1012,4 35 0 0,0
16.10.2018 04:00:00 7,0 6,1 - - 2 1 - - ENE 1013,1 10 0 0,0
16.10.2018 03:00:00 6,8 6,2 - - 2 1 - - E 1013,6 50 0 0,0
16.10.2018 02:00:00 7,5 6,0 - - 4 2 - - SE 1014,3 50 0 0,0
16.10.2018 01:00:00 7,8 5,9 - - 4 2 - - S 1014,7 10 - 0,0
16.10.2018 00:00:00 7,0 5,1 - - 5 3 - - WSW 1015,5 10 0 0,0
15.10.2018 23:00:00 7,6 5,5 - - 8 4 - - W 1015,5 50 0 0,0
15.10.2018 22:00:00 8,6 5,5 - - 11 6 - - S 1015,5 10 0 0,0
15.10.2018 21:00:00 8,2 7,3 - - 4 2 - - S 1015,7 10 0 0,0
15.10.2018 20:00:00 7,4 4,9 - - 5 3 - - WSW 1015,9 45 0 0,0
15.10.2018 19:00:00 7,7 4,3 - - 8 4 - - SSW 1015,4 50 0 0,0
15.10.2018 18:00:00 9,8 5,6 - - 8 4 - - SSW 1015,1 40 42 0,0
15.10.2018 17:00:00 12,3 7,4 - - 4 2 - - SSE 1014,8 35 60 0,0
15.10.2018 16:00:00 12,0 6,5 - - 9 5 - - E 1014,9 10 60 0,0
15.10.2018 15:00:00 12,5 7,0 - - 11 6 - - SE 1015,2 35 60 0,0
15.10.2018 14:00:00 12,9 5,0 - - 9 5 - - W 1015,6 45 60 0,0
15.10.2018 13:00:00 11,7 6,1 - - 9 5 - - WSW 1015,8 30 60 0,0
15.10.2018 12:00:00 9,6 5,8 - - 5 3 - - W 1015,8 45 42 0,0
15.10.2018 11:00:00 7,8 6,2 - - 5 3 - - WSW 1015,7 40 0 0,0
15.10.2018 10:00:00 6,3 5,7 10,7 11,7 8 4 - - W 1015,1 10 0 0,0
15.10.2018 09:00:00 5,3 5,1 - - 8 4 - - W 1014,8 40 0 0,0
15.10.2018 08:00:00 3,8 3,5 - - 4 2 - - NW 1014,4 21 0 0,0
15.10.2018 07:00:00 4,2 4,1 - - 4 2 - - WNW 1014,2 10 0 0,0
15.10.2018 06:00:00 3,8 3,7 - - 4 2 - - W 1014,1 10 0 0,0
15.10.2018 05:00:00 3,8 3,8 - - 5 3 - - WNW 1013,6 40 0 0,0
15.10.2018 04:00:00 2,1 1,7 - - 2 1 - - WNW 1013,5 20 0 0,0
15.10.2018 03:00:00 3,4 3,2 - - 8 4 - - WNW 1013,6 26 0 0,0
15.10.2018 02:00:00 3,0 2,9 - - 4 2 - - WNW 1013,1 10 0 0,0
15.10.2018 01:00:00 2,7 2,4 - - 8 4 - - WNW 1012,8 10 - 0,0
15.10.2018 00:00:00 4,2 4,1 - - 5 3 - - W 1012,6 18 0 0,0
14.10.2018 23:00:00 3,3 2,7 - - 2 1 - - W 1012,3 10 0 0,0
14.10.2018 22:00:00 4,0 3,7 - - 5 3 - - WNW 1012,0 25 0 0,0
14.10.2018 21:00:00 5,8 5,5 - - 5 3 - - W 1011,2 27 0 0,0
14.10.2018 20:00:00 5,7 5,2 - - 5 3 - - W 1010,9 45 0 0,0
14.10.2018 19:00:00 7,5 6,1 - - 0 0 - - N 1010,3 28 0 0,0
14.10.2018 18:00:00 9,8 6,6 - - 9 5 - - ESE 1009,3 35 54 0,0
14.10.2018 17:00:00 11,5 6,1 - - 5 3 - - E 1008,8 10 60 0,0
14.10.2018 16:00:00 12,2 5,2 - - 5 3 - - NW 1008,5 10 60 0,0
14.10.2018 15:00:00 11,8 5,8 - - 8 4 - - W 1008,7 30 36 0,0
14.10.2018 14:00:00 10,0 5,8 - - 8 4 - - W 1008,6 10 0 0,0

tt = Température de l'air
td = dewpoint
tt -20cm = Température de l'air -20cm
tt -100cm = Température de l'air -100cm
ff = Vitesse du vent
fx = gusts
dd = Direction du vent
ppp = reduced air pressure
vv = visibility
sd = Ensoleillement
rr = Quantités de précipitations

stations d'obs. à proximité